[[{"header":{"parameterUnit":"m.s-1","parameterCategory":1,"la1":30.2992,"la2":30.254,"lo1":-89.0895,"lo2":-89.0443,"dy":0.0025,"dx":0.0025,"nx":19,"ny":19,"refTime":"2026-05-05T03:00:00:Z","depth":0,"parameterNumber":2,"parameterNumberName":"U-component_of_WINDS"},"data":[0,0,0,-0.4409,-0.4411,-0.4517,-0.4517,-0.4644,-0.4645,0,0,0,0,0,0,0,0,0,0,0,-0.437,-0.437,-0.4409,-0.4411,-0.4517,-0.4517,-0.4644,-0.4645,0,0,0,0,0,0,0,0,0,0,0,-0.4369,-0.437,-0.4371,-0.4411,-0.4517,-0.4517,-0.4644,-0.4568,0,0,0,0,0,0,0,0,0,0,-0.4466,-0.4422,-0.437,-0.4371,-0.4412,-0.4517,-0.4517,-0.4564,-0.4572,-0.4592,0,-0.4604,0,-0.4626,-0.4653,-0.4653,0,0,0,-0.4418,-0.4415,-0.445,-0.4371,-0.4413,-0.4516,-0.4471,-0.4569,-0.4578,-0.4602,-0.4606,-0.4611,-0.4628,-0.4654,-0.4654,-0.4738,-0.4738,0,0,-0.4412,-0.4385,-0.4444,-0.4456,-0.4436,-0.4468,-0.4474,-0.4575,-0.4578,-0.4607,-0.4614,-0.4631,-0.4654,-0.4655,-0.4738,-0.4738,0,0,0,-0.4391,-0.438,-0.4414,-0.445,-0.447,-0.447,-0.4478,-0.4573,-0.4586,-0.4616,-0.4632,-0.4655,-0.4656,-0.4738,-0.4738,-0.4715,0,0,0,-0.4387,-0.4368,-0.4411,-0.4395,-0.4468,-0.4522,-0.4474,-0.4579,-0.4592,-0.4631,-0.4655,-0.4657,-0.4738,-0.4738,-0.4715,-0.4708,0,0,0,-0.4366,-0.4366,-0.4378,-0.4394,-0.4438,-0.4521,-0.454,-0.4583,-0.4601,-0.4653,-0.4658,-0.4738,-0.4738,-0.4716,-0.4709,-0.4722,0,0,0,-0.4335,-0.4356,-0.4377,-0.4408,-0.4437,-0.4505,-0.454,-0.4593,-0.4635,-0.4656,-0.4738,-0.4738,-0.4716,-0.471,-0.4723,-0.4728,-0.4728,0,0,-0.4347,-0.4357,-0.4378,-0.4399,-0.4456,-0.4491,-0.4547,-0.4612,-0.4643,-0.4705,-0.4708,-0.4715,-0.4709,-0.4722,-0.4736,-0.4736,0,0,0,-0.4373,-0.4387,-0.4408,-0.4445,-0.4494,-0.4537,-0.4596,-0.4621,-0.4674,-0.4668,-0.4724,-0.4722,-0.4731,-0.4735,-0.4735,-0.4744,-0.4739,-0.4739,-0.4739,-0.4351,-0.4388,-0.4425,-0.4475,-0.4512,-0.4573,-0.4607,-0.4651,-0.4678,-0.4691,-0.471,-0.4713,-0.4717,-0.4717,-0.4726,-0.4716,-0.4716,-0.4716,-0.4716,-0.4373,-0.4399,-0.4435,-0.4484,-0.4524,-0.4567,-0.4628,-0.4646,-0.4693,-0.4702,-0.4712,-0.4718,-0.4715,-0.4726,-0.4714,-0.4715,-0.4715,-0.4715,-0.4715,-0.4363,-0.4382,-0.441,-0.4469,-0.4511,-0.4562,-0.4605,-0.4641,-0.4676,-0.4685,-0.4709,-0.471,-0.4715,-0.4694,-0.4694,-0.4694,-0.4694,-0.4694,-0.4694,-0.4341,-0.4373,-0.4404,-0.4458,-0.4488,-0.4531,-0.4594,-0.4625,-0.4669,-0.4692,-0.4693,-0.472,-0.4707,-0.4703,-0.4695,-0.4695,-0.4695,-0.4695,-0.4695,-0.4348,-0.4352,-0.4399,-0.4428,-0.4496,-0.4536,-0.4582,-0.4642,-0.4673,-0.4694,-0.472,-0.4704,-0.4717,-0.4718,-0.4715,-0.471,-0.471,-0.471,-0.471,-0.4339,-0.4349,-0.4406,-0.445,-0.4499,-0.4545,-0.4599,-0.465,-0.4703,-0.4725,-0.4731,-0.473,-0.4729,-0.4743,-0.4743,-0.4741,-0.4743,-0.4743,-0.4743,-0.4346,-0.4363,-0.44,-0.445,-0.4506,-0.4555,-0.4608,-0.466,-0.4722,-0.4746,-0.4743,-0.4742,-0.4741,-0.4739,-0.4761,-0.4761,-0.4757,0,0]},{"header":{"parameterUnit":"m.s-1","parameterCategory":1,"la1":30.2992,"la2":30.254,"lo1":-89.0895,"lo2":-89.0443,"dy":0.0025,"dx":0.0025,"nx":19,"ny":19,"refTime":"2026-05-05T03:00:00:Z","depth":0,"parameterNumber":3,"parameterNumberName":"V-component_of_WINDS"},"data":[0,0,0,5.6009,5.6009,5.6,5.6,5.5997,5.5997,0,0,0,0,0,0,0,0,0,0,0,5.6016,5.6017,5.6009,5.6009,5.6,5.6,5.5997,5.5997,0,0,0,0,0,0,0,0,0,0,0,5.6016,5.6017,5.6017,5.6009,5.6,5.6,5.5997,5.6001,0,0,0,0,0,0,0,0,0,0,5.6008,5.602,5.6016,5.6017,5.6009,5.6,5.6,5.6001,5.6001,5.6005,0,5.601,0,5.6004,5.5998,5.5998,0,0,0,5.6005,5.602,5.6013,5.6017,5.6009,5.6,5.6003,5.6001,5.6,5.6004,5.601,5.6009,5.6004,5.5998,5.5998,5.6034,5.6034,0,0,5.6006,5.6017,5.6013,5.6013,5.6015,5.6003,5.6003,5.6,5.6007,5.601,5.6009,5.6003,5.5998,5.5998,5.6033,5.6034,0,0,0,5.6009,5.6018,5.6011,5.6013,5.6011,5.6003,5.6003,5.6007,5.6004,5.6009,5.6003,5.5998,5.5998,5.6033,5.6034,5.6062,0,0,0,5.601,5.602,5.6011,5.6019,5.6012,5.6009,5.6009,5.6004,5.6003,5.6003,5.5998,5.5998,5.6033,5.6033,5.606,5.6073,0,0,0,5.6015,5.6021,5.6021,5.6019,5.6016,5.6009,5.6005,5.6003,5.6,5.5998,5.5998,5.6032,5.6033,5.6059,5.6071,5.6086,0,0,0,5.6025,5.6047,5.6022,5.6044,5.6016,5.6026,5.6005,5.6012,5.6014,5.5998,5.6033,5.6034,5.6058,5.6069,5.6084,5.61,5.6108,0,0,5.6059,5.6051,5.6063,5.6041,5.6059,5.6027,5.6048,5.6039,5.6028,5.6032,5.6033,5.6061,5.607,5.6085,5.6149,5.6155,0,0,0,5.6078,5.6087,5.6089,5.6091,5.6084,5.6079,5.6065,5.6061,5.6065,5.6032,5.607,5.6076,5.6084,5.6091,5.6096,5.6102,5.6037,5.6037,5.6037,5.6143,5.6128,5.6147,5.6131,5.6133,5.6118,5.6119,5.6111,5.6095,5.6104,5.6105,5.6146,5.6155,5.6159,5.6165,5.6113,5.6113,5.6113,5.6113,5.6191,5.6201,5.618,5.619,5.6174,5.6183,5.617,5.6158,5.6164,5.6144,5.615,5.6129,5.6166,5.6171,5.6115,5.6115,5.6115,5.6115,5.6114,5.6231,5.6233,5.6229,5.623,5.6233,5.6216,5.6223,5.6208,5.6194,5.6201,5.62,5.62,5.6197,5.6202,5.6202,5.6202,5.6202,5.6202,5.6202,5.6275,5.6269,5.6276,5.6271,5.627,5.6268,5.6254,5.6253,5.6248,5.6236,5.6236,5.6219,5.6173,5.6161,5.6205,5.6204,5.6204,5.6204,5.6204,5.6328,5.6314,5.6325,5.6325,5.6317,5.6321,5.6303,5.6302,5.6299,5.6303,5.6285,5.6253,5.6244,5.624,5.623,5.6288,5.6288,5.6288,5.6288,5.6362,5.6356,5.6364,5.6364,5.6363,5.6347,5.6361,5.635,5.6337,5.6334,5.6323,5.6309,5.6306,5.6299,5.6293,5.6284,5.6355,5.6355,5.6355,5.6393,5.6387,5.6401,5.6388,5.6381,5.6376,5.6388,5.6389,5.6371,5.6357,5.6331,5.6329,5.6306,5.6299,5.6284,5.6275,5.6258,0,0]}]]